Home > Weather > Ancona > Past weeks

Flag for Italy Past Weather in Ancona, Italy — Yesterday and Last 2 Weeks

Now
61 °F

Clear.


Feels Like: 61 °F
Forecast: 65 / 75 °F
Wind: 2 mph from North

Location: Falconara

Current Time: May 28, 2016 at 6:13:22 AM

Latest Report: May 28, 2016 at 4:50 AM


Visibility: 10 mi

Pressure: 29.95 "Hg

Humidity: 77%

Dew Point: 54 °F

Location of AnconaLocation

Past Weather in Ancona — Graph

°F

Ancona Temperature Yesterday

Maximum temperature yesterday: 81 °F (at 1:50 PM)
Minimum temperature yesterday: 57 °F (at 4:50 AM)
Average temperature yesterday: 69 °F

High & Low Weather Summary for the Past Weeks

 TemperatureHumidityPressure
High81 °F (May 27, 1:50 PM)100% (May 13, 9:50 PM)30.09 "Hg (May 13, 9:50 PM)
Low46 °F (May 18, 4:50 AM)29% (May 18, 11:50 AM)29.53 "Hg (May 13, 3:50 AM)
Average63 °F67%29.91 "Hg
* Reported May 13 3:50 AM — May 28 3:50 AM, Ancona, Weather by CustomWeather, © 2016

Note: Actual official high and low records may vary slightly from our data, if they occured in-between our weather recording intervals... More about our weather records

Advertising

Ancona Weather History for the Previous 24 Hours

Scroll right to see more
 ConditionsComfort  
Time TempWeatherWind HumidityBarometerVisibility
3:50 AM
Sat, May 28
61 °FClear.1 mph77%29.95 "Hg10 mi
2:50 AM64 °FClear.3 mph64%29.95 "Hg10 mi
1:50 AM63 °FClear.2 mph68%29.95 "Hg10 mi
12:50 AM64 °FClear.5 mph60%29.98 "Hg10 mi
11:50 PM
Fri, May 27
64 °FPassing clouds.3 mph60%29.95 "HgN/A
10:50 PM64 °FClear.2 mph64%29.98 "Hg10 mi
9:50 PM68 °FPassing clouds.3 mph53%29.98 "HgN/A
8:50 PM73 °FSunny.3 mph38%29.98 "Hg10 mi
7:50 PM75 °FPassing clouds.6 mph36%29.98 "HgN/A
6:50 PM77 °FPassing clouds.7 mph34%29.98 "HgN/A
5:50 PM79 °FPassing clouds.5 mph37%29.98 "HgN/A
4:50 PM81 °FPassing clouds.9 mph32%29.98 "HgN/A
3:50 PM81 °FPassing clouds.9 mph34%29.98 "HgN/A
2:50 PM81 °FPassing clouds.10 mph32%29.98 "HgN/A
1:50 PM81 °FPassing clouds.9 mph34%29.98 "HgN/A
12:50 PM75 °FSunny.10 mph61%30.01 "Hg10 mi
11:50 AM72 °FSunny.9 mph65%30.04 "Hg10 mi
10:50 AM73 °FSunny.8 mph57%30.04 "Hg10 mi
9:50 AM72 °FSunny.7 mph61%30.04 "Hg10 mi
8:50 AM72 °FSunny.1 mph61%30.04 "Hg10 mi
7:50 AM64 °FSunny.5 mph78%30.04 "Hg10 mi
6:50 AM59 °FSunny.1 mph88%30.01 "Hg10 mi
Weather by CustomWeather, © 2016

See weather overviewHow to use our weather pages